Regional Weather Roundup
Issued by NWS Goodland, KS

Home | Current Version | Previous Version | Text Only | Print | Product List | Glossary Off
Versions: 1 2 3 4 5 6 7 8 9 10 11 12 13 14 15 16 17 18 19 20 21 22 23 24 25 26 27 28 29 30 31 32 33 34 35 36 37 38 39 40 41 42 43 44 45 46 47 48 49 50

000
ASUS43 KGLD 190459
RWRGLD

GOODLAND FORECAST AREA HOURLY WEATHER ROUNDUP
NATIONAL WEATHER SERVICE GOODLAND KS
1100 PM MDT SAT APR 18 2015

...OFFICIAL OBSERVATIONS...

CITY           SKY/WX    TMP DP  RH WIND       PRES   REMARKS
GOODLAND KS    CLOUDY    47  44  90 N10       29.79F
HILL CITY KS   CLOUDY    51  48  89 NE8       29.80R
IMPERIAL NEB   CLOUDY    49  44  83 N12       29.86R
MCCOOK NEB     CLOUDY    54  47  77 E12       29.83R
AKRON CO       CLOUDY    43  40  89 N24       29.88S
BURLINGTON CO  CLOUDY    46  41  82 N15       29.82S
LIMON CO       LGT RAIN  40  38  93 NW18G25   29.90R
$$

...UNOFFICIAL OBSERVATIONS...

CITY           SKY/WX    TMP DP  RH WIND       PRES   REMARKS
COLBY KS       CLOUDY    52  48  87 N3        29.80S
GOVE KS          N/A     53  32  45 MISG        N/A
LENORA KS        N/A     51  32  48 MISG        N/A
NORTON KS      CLOUDY    54  46  76 CALM      29.81S
SHARON SPRINGS   N/A     46  44  92 MISG        N/A
TRIBUNE KS     CLOUDY    48  46  93 W6        29.83S
KIT CARSON CO    N/A     44  40  87 MISG        N/A
YUMA CO          N/A     45  39  81 N12         N/A
$$



USA.gov is the U.S. government's official web portal to all federal, state and local government web resources and services.